Flag for U.S.A. Weather past 2 weeks in New Salem, North Dakota, U.S.A.

Now
68 °F

Mostly cloudy.


Feels Like: 68 °F
Forecast: 55 / 61 °F
Wind: 10 mph from Northeast

Location: Bismarck Municipal Airport

Current Time: Aug 22, 2014 at 8:42:12 PM

Latest Report: Aug 22, 2014 at 7:52 PM


Visibility: 10 mi

Pressure: 30.04 "Hg

Humidity: 90%

Dew point: 65 °F

Location of New SalemLocation

Historic Weather in New Salem — Graph

°F

New Salem temperature yesterday

Maximum temperature yesterday: 83 °F (at 4:52 PM)
Minimum temperature yesterday: 65 °F (at 5:52 AM)
Average temperature yesterday: 72 °F

Past Weeks' High & Low Weather Summary

 TemperatureHumidityPressure
High90 °F (Aug 13, 2:52 PM)100% (Aug 22, 7:52 AM)30.28 "Hg (Aug 22, 7:52 AM)
Low51 °F (Aug 11, 6:52 AM)33% (Aug 12, 4:52 PM)29.66 "Hg (Aug 20, 9:52 PM)
Average72 °F74%29.93 "Hg
* Reported Aug 7 6:52 PM — Aug 22 6:52 PM, New Salem, Weather by CustomWeather, © 2014

Note: Actual official high and low records may vary slightly from our data, if they occured in-between our weather recording intervals... More about our weather records

Advertising

New Salem weather history for previous 24 hours

 ConditionsComfort  
Time TempWeatherWind HumidityBarometerVisibility
6:52 PM
Aug 22
68 °FOvercast.12 mph90%30.04 "Hg10 mi
5:52 PM69 °FOvercast.13 mph87%30.05 "Hg10 mi
4:52 PM72 °FCloudy.13 mph76%30.04 "Hg10 mi
3:52 PM74 °FPartly sunny.14 mph74%30.02 "Hg10 mi
2:52 PM75 °FPartly sunny.9 mph71%30.02 "Hg10 mi
1:52 PM73 °FMostly cloudy.8 mph76%30.02 "Hg10 mi
12:52 PM75 °FOvercast.No wind66%30.02 "Hg10 mi
11:52 AM75 °FBroken clouds.5 mph69%30.03 "Hg10 mi
11:01 AM71 °FPassing clouds.No wind78%30.05 "Hg10 mi
9:52 AM69 °FMostly cloudy.No wind87%30.03 "Hg10 mi
8:52 AM67 °FLow clouds.5 mph93%30.03 "Hg9 mi
7:52 AM65 °FLight rain. Partly sunny.No wind100%29.99 "Hg7 mi
6:52 AM65 °FPartly cloudy.No wind97%29.99 "Hg10 mi
5:52 AM66 °FLight rain. Fog.3 mph96%29.98 "Hg6 mi
4:52 AM66 °FLight rain. Fog.No wind93%29.99 "Hg6 mi
4:01 AM66 °FLight rain. Partly cloudy.5 mph96%30.01 "Hg8 mi
2:52 AM66 °FLight rain. Overcast.7 mph93%29.97 "Hg7 mi
1:52 AM68 °FPassing clouds.3 mph87%29.96 "Hg10 mi
12:52 AM68 °FClear.6 mph84%29.93 "Hg10 mi
11:52 PM
Aug 21
67 °FClear.3 mph87%29.93 "Hg10 mi
10:52 PM68 °FClear.3 mph84%29.93 "Hg10 mi
9:52 PM71 °FClear.3 mph73%29.94 "Hg10 mi
8:52 PM73 °FSunny.5 mph66%29.92 "Hg10 mi
Weather by CustomWeather, © 2014

See weather overviewHow to use our weather pages